Terminal Aerodrome Forecast
Issued by NWS Buffalo, NY

Home | Current Version | Previous Version | Text Only | Print | Product List | Glossary On
Versions: 1 2 3 4 5 6 7 8 9 10 11 12 13 14 15 16 17 18 19 20 21 22 23 24 25
000
FTUS41 KBUF 252108 AAA
TAFBUF
TAF AMD
KBUF 252108Z 2521/2618 24014G20KT P6SM SCT035 BKN200
     FM260000 25007KT P6SM VCSH BKN035
     FM260500 22004KT 4SM BR BKN030
     FM260800 VRB03KT 4SM BR BKN007
     FM261400 24005KT P6SM FEW250=

USA.gov is the U.S. government's official web portal to all federal, state and local government web resources and services.